Regional Weather Roundup
Issued by NWS

Home | Current Version | Previous Version | Graphics & Text | Print | Product List | Glossary On
Versions: 1 2 3 4 5 6 7 8 9 10 11 12 13 14 15 16 17 18 19 20 21 22 23 24 25 26 27 28 29 30 31 32 33 34 35 36 37 38 39 40 41 42 43 44 45 46 47 48 49 50
000
ASUS43 KLOT 280100
RWRIL

ILLINOIS REGIONAL WEATHER ROUNDUP
NATIONAL WEATHER SERVICE CHICAGO/ROMEOVILLE IL
800 PM CDT WED AUG 27 2014

NOTE: "FAIR" INDICATES FEW OR NO CLOUDS BELOW 12,000 FEET WITH NO
SIGNIFICANT WEATHER AND/OR OBSTRUCTIONS TO VISIBILITY.

* THESE STATIONS ARE NOT UNDER NWS QUALITY CONTROL. THEY ALSO MAY NOT
  REPORT WEATHER SUCH AS PRECIPITATION OR FOG.

ILZ001-002-007-009-015-016-024-280200-
NORTHWEST ILLINOIS

CITY           SKY/WX    TMP DP  RH WIND       PRES   REMARKS
MOLINE         PTCLDY    74  62  66 NE7       30.08S
STERLING*      PTCLDY    68  63  83 E6        30.09S
$$

ILZ003-004-008-010-011-017-018-280200-
NORTH CENTRAL ILLINOIS

CITY           SKY/WX    TMP DP  RH WIND       PRES   REMARKS
ROCKFORD       MOCLDY    72  60  66 E7        30.09F
$$

ILZ005-006-012>014-019>023-280200-
NORTHEAST ILLINOIS

CITY           SKY/WX    TMP DP  RH WIND       PRES   REMARKS
CHICAGO-OHARE  MOCLDY    70  59  68 NE9       30.10S
CHICAGO-MIDWAY MOCLDY    72  62  71 E10       30.10F
AURORA         MOCLDY    71  63  75 NE6       30.10S
WAUKEGAN       MOCLDY    65  61  87 NE6       30.11S
DUPAGE AIRPORT MOCLDY    70  61  73 NE8       30.10S
WHEELING       MOCLDY    70  61  73 CALM      30.12S
NORTHERLY ISL    N/A     70  61  73 NE12        N/A
$$

LMZ740>746-280200-
SOUTHERN LAKE MICHIGAN

STATION/POSITION SKY/WX   TEMP    WIND        PRES    VSBY  WAVE
                          AIR SEA DIR/SP/G                  HT/PER
                          (F)     (DEG/KT/KT) (MB)    (MI)  (FT/S)
SOUTHERN BUOY              67 70   20/ 10/ 12 1020.0F         1/ 2
WAUKEGAN HARBOR            69      50/  9/ 11   N/A
HARRISON CRIB              69      50/ 10/ 13   N/A
BURNHAM HARBOR             70      60/  9/ 12   N/A
CALUMET HARBOR             70      30/  8/ 10 1018.2F
MICHIGAN CITY              70      20/ 16/ 18   N/A
MICHIGAN CITY 6N           71 74   50/ 12/ 16   N/A           3/ 3
ST. JOSEPH                 70 73   30/ 14/ 17   N/A           3/ 3
$$

ILZ025>027-034>036-040-047-049-050-058-095>099-280200-
WEST-CENTRAL ILLINOIS

CITY           SKY/WX    TMP DP  RH WIND       PRES   REMARKS
QUINCY         CLOUDY    78  73  84 SE5       30.07R HX  81
MACOMB*        MOCLDY    75  71  89 CALM      30.10R
$$

ILZ028>032-037-038-041>044-048-051>054-059>061-280200-
CENTRAL ILLINOIS

CITY           SKY/WX    TMP DP  RH WIND       PRES   REMARKS
DECATUR        PTCLDY    76  73  91 N5        30.08R
PEORIA         CLEAR     77  66  68 E6        30.08R
SPRINGFIELD    PTCLDY    77  73  87 CALM      30.07R
TAYLORVILLE    NOT AVBL
$$

ILZ033-039-045-046-055>057-062-063-280200-
EAST-CENTRAL ILLINOIS

CITY           SKY/WX    TMP DP  RH WIND       PRES   REMARKS
CHAMPAIGN      MOCLDY    76  69  79 NE9       30.08R
MATTOON        LGT RAIN  75  73  93 CALM      30.06R
$$

ILZ079-100>102-280200-
SOUTHWEST ILLINOIS

CITY           SKY/WX    TMP DP  RH WIND       PRES   REMARKS
BELLEVILLE     LGT RAIN  74  69  84 W6        30.07R
$$

ILZ064>066-069>071-074>076-080>082-084>086-088>090-092>094-280200-
SOUTH-CENTRAL ILLINOIS

CITY           SKY/WX    TMP DP  RH WIND       PRES   REMARKS
CARBONDALE     CLOUDY    83  74  74 CALM      30.04R HX  89
MT. VERNON     CLOUDY    75  68  78 NE5       30.06S
SALEM*         CLOUDY    83  75  75 CALM      30.07R THUNDER HX  90
$$

ILZ067-068-072-073-078-083-087-091-280200-
SOUTHEAST ILLINOIS

CITY           SKY/WX    TMP DP  RH WIND       PRES   REMARKS
LAWRENCEVILLE  CLOUDY    80  71  74 N3        30.06R HX  84
$$

ABBREVIATIONS USED IN REMARKS
   TC - TEMPERATURE IN CELSIUS
  WCI - WIND CHILL INDEX
   HX - HEAT INDEX
  VSB - VISIBILITY
$$



USA.gov is the U.S. government's official web portal to all federal, state and local government web resources and services.